DAL1421 KLAX-KSFO

Flight info

Callsign DAL1421
Flight time N/A
Altitude 34000
Route SUMMR2 STOKD SERFR SERFR4
Aircraft A339/H-SADE1E2E3GHIJ3J5M1P2RWXY/LB2D1

Departure

Time 2026-04-22 22:52
Airport Los Angeles International Airport (KLAX)

Arrival

Time N/A
Airport San Francisco International Airport (KSFO)
Time Latitude Longitude Altitude Speed Heading
2026-04-22 22:36 33.94689 -118.40984 103 ft 0 kts 219°
2026-04-22 22:44 33.94691 -118.40983 101 ft 1 kts 219°
2026-04-22 22:45 33.94704 -118.40969 102 ft 2 kts 220°
2026-04-22 22:45 33.94719 -118.40956 102 ft 2 kts 235°
2026-04-22 22:45 33.94728 -118.40943 101 ft 3 kts 271°
2026-04-22 22:45 33.94731 -118.40929 99 ft 3 kts 313°
2026-04-22 22:46 33.94719 -118.40915 101 ft 3 kts 343°
2026-04-22 22:46 33.94708 -118.40911 100 ft 1 kts 353°
2026-04-22 22:46 33.94691 -118.40908 101 ft 2 kts 353°
2026-04-22 22:46 33.94684 -118.40907 100 ft 0 kts 353°
2026-04-22 22:49 33.94691 -118.40908 101 ft 6 kts 353°
2026-04-22 22:49 33.94746 -118.40891 102 ft 12 kts 22°
2026-04-22 22:49 33.94827 -118.40854 105 ft 4 kts 56°
2026-04-22 22:50 33.94848 -118.40725 105 ft 24 kts 81°
2026-04-22 22:50 33.94877 -118.40515 106 ft 26 kts 84°
2026-04-22 22:50 33.94895 -118.40288 106 ft 26 kts 83°
2026-04-22 22:50 33.94941 -118.40177 108 ft 11 kts 22°
2026-04-22 22:51 33.94988 -118.40187 113 ft 6 kts 331°
2026-04-22 22:51 33.95009 -118.40240 112 ft 7 kts 284°
2026-04-22 22:51 33.95006 -118.40253 114 ft 0 kts 262°
2026-04-22 22:51 33.95006 -118.40254 114 ft 2 kts 262°
2026-04-22 22:52 33.94974 -118.40600 111 ft 88 kts 263°
2026-04-22 22:52 33.94866 -118.41647 116 ft 161 kts 262°
2026-04-22 22:52 33.94718 -118.43086 663 ft 177 kts 262°
2026-04-22 22:52 33.94678 -118.43476 966 ft 173 kts 261°
2026-04-22 22:53 33.94509 -118.44658 1993 ft 157 kts 257°
2026-04-22 22:53 33.94339 -118.46050 2594 ft 182 kts 262°
2026-04-22 22:53 33.94268 -118.47686 3146 ft 206 kts 268°
2026-04-22 22:53 33.94264 -118.49474 3692 ft 226 kts 268°
2026-04-22 22:54 33.94214 -118.51462 4193 ft 243 kts 264°
2026-04-22 22:54 33.94063 -118.53508 4803 ft 251 kts 263°